Terminal Aerodrome Forecast
Issued by NWS Grand Forks, ND

Home | Current Version | Previous Version | Graphics & Text | Print | Product List | Glossary On
Versions: 1 2 3 4 5 6 7 8 9 10 11 12 13 14 15
195
FTUS43 KFGF 180934 AAA
TAFGFK
TAF AMD
KGFK 180934Z 1810/1906 24012KT P6SM BKN150
      TEMPO 1810/1812 BKN025
     FM182000 20008KT P6SM FEW250=

USA.gov is the U.S. government's official web portal to all federal, state and local government web resources and services.